Hourly Data Report for November 15, 2017

VICTORIA UNIVERSITY CS
BRITISH COLUMBIA

48°27'25.200" N
123°18'16.600" W
60.10 m
1018598
71783
WYJ

Download Data

Hourly Data (November 2017)
Hourly Data Report for November 15, 2017
TIME
LST
Temp Definition
°C
Dew Point Definition
°C
Rel Hum Definition
%
Precip. Amount Definition
mm

Wind Dir Definition
10's deg

Wind Spd Definition
km/h
Visibility Definition
km
Stn Press Definition
kPa
Hmdx Definition


Wind Chill Definition


Weather Definition


00:00 8.6 6.3 86 0.0 13 6   99.64     LegendNANA
01:00 8.1 6.7 91 1.7 14 8   99.59     LegendNANA
02:00 8.0 6.5 90 1.2 14 8   99.55     LegendNANA
03:00 7.9 6.5 90 0.6 15 6   99.54     LegendNANA
04:00 7.7 6.0 89 0.5 16 7   99.44     LegendNANA
05:00 7.4 5.7 89 0.2 15 6   99.38     LegendNANA
06:00 7.0 6.1 94 0.4 25 4   99.46     LegendNANA
07:00 6.1 5.3 94 0.2 21 3   99.51     LegendNANA
08:00 5.5 4.7 95 0.0 15 3   99.52     LegendNANA
09:00 7.4 5.6 88 0.0 17 5   99.52     LegendNANA
10:00 9.5 6.0 79 0.0 16 3   99.51     LegendNANA
11:00 9.1 5.6 79 0.0 12 5   99.52     LegendNANA
12:00 8.7 5.3 79 0.0 14 5   99.46     LegendNANA
13:00 10.3 6.4 77 0.0 14 3   99.42     LegendNANA
14:00 9.6 5.8 77 0.0 14 3   99.38     LegendNANA
15:00 9.0 5.9 81 0.0 12 2   99.34     LegendNANA
16:00 8.2 5.8 85 0.0 18 3   99.33     LegendNANA
17:00 7.6 6.0 90 0.0 29 5   99.29     LegendNANA
18:00 6.2 5.1 93 0.0 6 2   99.22     LegendNANA
19:00 5.2 4.5 95 0.0   0   99.18     LegendNANA
20:00 6.8 5.5 91 0.0 10 2   99.15     LegendNANA
21:00 6.8 5.0 89 0.0 9 3   99.11     LegendNANA
22:00 6.3 5.0 91 0.0 28 2   99.10     LegendNANA
23:00 6.0 5.0 93 0.0 31 7   99.05     LegendNANA

Notes on Data Quality.

Legend

  • E = Estimated
  • M = Missing
  • NA = Not Available*
  • [empty] = Indicates an unobserved value
Date modified: